Location: *
(45.5667°S, 177.5167°W)
Time: 16:51:53
(UTC+00:00)

Cosmos 1302 Rocket - Pass Details

Date: 29 May 2022
Orbit: 757 x 775 km, 74.0° (Epoch: 28 June)

Event Time Altitude Azimuth Distance (km) Brightness Sun altitude
Rises 04:42:18 0° 348° (NNW) 3,216 7.8 -4.6°
Reaches altitude 10° 04:44:40 10° 350° (N) 2,300 7.0 -5.0°
Maximum altitude 04:49:51 69° 72° (ENE) 828 4.1 -5.8°
Drops below altitude 10° 04:55:08 10° 154° (SSE) 2,341 6.1 -6.6°
Sets 04:57:33 0° 156° (SSE) 3,278 6.8 -7.0°
